User: anonymous   Login
Location: Unspecified
(0.0000°N, 0.0000°E)
Time: 12:38:32
(UTC+00:00)
Language:

AO-91 - Orbit

View from above orbital plane
View from above orbital plane
View from above satellite
View from above satellite

Ground track
Ground track

The orbit data is extracted from the following two-line orbital elements,

1 43017U 17073E   18020.28504858 +.00001036 +00000-0 +86507-4 0  9994
2 43017 097.6978 317.6896 0261398 033.3164 328.4197 14.77849542009264
Epoch (UTC): 20 January 2018 06:50:28
Eccentricity: 0.0261398
inclination: 97.6978°
perigee height: 453 km
apogee height: 819 km
right ascension of ascending node: 317.6896°
argument of perigee: 33.3164°
revolutions per day: 14.77849542
mean anomaly at epoch: 328.4197°
orbit number at epoch: 926

The dashed part of the orbit path shows where the satellite is in the earth's shadow,  

DLR